Wind_Speed
15 14 14 13 12 12 13 13 14 15 16 17 18 20 20 21 21 21 21 21 21 21 21 21 22 23 24 24 25 26 27 28 29 30 30 31 31 31 32 33 33 33
16 16 16 14 13 14 14 15 16 16 17 18 20 21 22 22 23 23 23 23 22 22 22 23 23 23 24 25 25 26 28 29 30 31 31 31 32 32 32 33 33 34
18 18 18 16 15 15 16 16 17 18 19 20 21 22 23 23 24 24 24 24 24 24 24 24 24 24 25 25 26 26 27 28 29 30 31 31 31 32 32 32 32 33
19 20 20 19 18 17 17 17 18 19 20 21 23 23 24 24 25 25 24 24 24 24 24 24 24 24 25 25 26 26 27 27 28 29 29 30 30 30 30 30 31 31
21 21 21 20 20 19 19 19 19 20 21 22 24 24 25 25 25 25 24 23 23 23 23 23 24 24 25 25 26 26 26 27 27 27 27 27 28 28 28 28 29 30
22 22 22 22 21 21 21 21 21 21 21 22 24 24 25 25 24 24 24 23 23 23 23 23 24 24 25 25 25 25 25 26 26 25 25 26 26 27 27 27 28 28
23 23 24 23 22 22 22 23 22 22 22 22 23 24 24 24 24 24 24 24 24 23 24 24 24 24 25 25 24 24 24 25 25 24 25 25 26 27 27 27 28 28
25 25 24 23 23 24 24 24 24 23 23 22 23 23 23 24 24 24 24 24 24 24 24 24 25 25 25 24 24 24 24 24 24 24 25 25 26 27 27 27 27 28
27 26 25 24 24 24 25 25 24 23 23 22 22 22 23 23 24 25 25 25 25 25 25 25 26 25 25 25 24 24 24 24 24 24 25 25 26 26 26 26 27 27
29 28 26 24 24 25 26 26 25 23 22 22 22 22 22 23 24 25 25 25 25 26 26 26 26 25 25 25 25 25 24 24 24 24 24 24 24 24 25 25 25 25
31 30 27 24 24 25 26 25 24 22 22 22 22 22 22 22 24 25 26 26 26 26 26 26 25 25 25 25 25 24 24 24 24 23 23 23 23 23 23 24 24 24
36 33 28 25 24 26 26 24 22 21 21 21 21 21 21 23 25 26 27 27 27 26 26 25 24 24 24 24 24 24 24 23 23 23 23 23 23 23 23 23 23 24
38 36 30 26 25 26 25 22 21 21 21 21 21 20 21 23 25 27 28 27 27 26 25 24 24 24 24 24 24 23 23 23 23 23 23 23 23 24 24 24 24 24
37 39 32 27 26 25 22 20 19 20 20 21 21 21 22 23 25 27 28 28 26 25 24 24 24 24 24 24 23 23 23 23 23 22 22 22 22 23 23 24 24 25
31 36 33 26 25 23 20 18 18 19 20 21 22 22 23 25 26 28 29 28 26 25 24 24 24 24 24 23 23 23 23 23 23 22 21 21 21 21 22 23 24 25
26 29 31 26 23 21 17 16 17 18 20 21 23 24 25 26 27 29 29 27 25 25 24 24 24 24 23 23 23 23 22 22 22 22 21 20 20 20 21 22 23 24
24 25 28 24 21 19 16 15 16 18 20 21 24 25 27 28 29 30 30 27 26 25 24 24 24 24 24 24 23 22 21 21 21 21 21 20 20 20 20 21 22 23
22 23 26 23 20 18 16 15 16 18 20 22 24 26 27 28 29 31 30 28 26 25 24 24 24 24 24 24 23 22 22 21 21 21 21 20 20 20 20 21 22 22
20 24 24 22 20 17 15 14 16 18 20 23 25 26 27 28 30 31 30 28 26 25 24 24 24 24 23 23 22 23 23 22 22 22 21 20 20 20 20 20 20 20
20 22 22 21 19 17 14 14 16 18 21 23 24 25 27 29 30 30 29 28 26 25 24 25 25 24 23 23 23 23 23 23 22 22 21 21 20 19 19 18 17 16
20 21 21 20 18 15 14 15 17 19 22 23 24 25 27 29 30 29 28 27 25 24 24 24 24 24 23 23 23 23 23 22 22 22 21 20 19 18 17 16 15 14
20 21 21 20 18 15 13 14 17 20 21 22 23 26 27 29 29 28 27 26 25 24 24 24 24 24 24 24 23 23 22 22 21 21 20 19 18 17 16 15 13 13
20 22 23 23 20 16 14 15 18 20 20 21 23 26 27 29 28 26 25 24 24 24 23 23 23 24 24 24 23 22 22 21 21 20 19 18 16 15 14 14 13 12
23 25 24 23 21 16 14 16 18 19 20 21 23 25 27 28 27 25 24 23 23 22 22 21 22 23 23 23 23 22 22 21 20 19 17 16 14 13 13 12 12 12
25 25 23 22 21 18 16 18 19 19 20 21 23 25 27 26 25 24 23 22 22 21 20 20 21 22 22 22 22 21 21 20 18 16 15 13 12 11 11 11 11 10
20 18 16 16 17 18 19 20 19 19 20 21 23 25 26 25 23 23 22 22 21 20 18 18 19 20 19 20 20 19 18 17 15 14 12 11 11 10 10 9 9 9
Wind_Direction
268 271 276 283 290 297 302 306 307 309 314 319 321 320 319 317 315 312 308 302 295 289 286 284 283 283 283 283 283 282 280 279 277 275 274 274 273 273 273 273 273 273
268 271 274 279 285 291 296 302 306 308 313 317 319 318 316 314 311 309 307 303 298 292 288 285 283 283 283 283 283 283 283 282 281 279 277 276 275 273 272 272 272 272
269 271 273 277 281 285 291 298 303 308 313 316 317 316 314 312 310 308 306 302 298 294 290 287 286 285 284 284 284 284 284 283 282 280 279 277 276 275 274 273 272 271
267 270 273 277 280 283 289 295 301 305 310 313 313 314 313 311 309 307 305 301 298 294 291 289 288 288 287 287 287 286 286 285 283 281 279 277 276 276 275 274 273 272
264 269 273 277 280 284 288 293 297 301 306 309 311 312 312 310 309 307 304 302 299 296 294 292 292 292 291 291 291 290 290 289 287 284 281 279 278 277 276 275 274 273
262 267 272 275 279 283 287 291 295 300 304 308 309 310 310 310 310 309 307 304 301 299 297 296 296 296 296 295 293 292 291 289 287 285 282 280 278 277 277 276 275 274
261 264 268 273 277 281 285 289 294 299 304 306 307 307 307 310 311 310 308 305 302 301 300 300 301 301 299 297 295 292 291 289 286 283 280 278 277 277 277 277 277 276
258 261 265 270 275 279 283 287 292 297 301 303 304 304 306 309 311 310 308 306 304 304 305 306 306 305 302 298 295 292 290 288 286 284 282 280 279 278 278 278 278 278
252 257 261 266 271 276 280 285 290 294 297 300 301 304 307 310 311 311 309 308 308 309 311 312 310 308 303 299 296 293 291 290 288 285 283 282 281 281 280 280 280 279
248 251 256 261 266 272 277 282 286 290 293 297 300 304 310 315 316 316 315 313 313 314 314 313 310 306 302 299 297 296 293 291 289 286 284 283 282 281 281 281 280 279
242 245 248 256 262 267 273 278 281 285 291 294 299 305 312 320 324 323 321 319 317 316 314 311 307 303 300 299 297 295 293 291 289 288 287 286 285 284 283 282 281 281
236 238 240 248 257 264 269 273 276 282 289 293 298 306 314 324 329 328 325 321 318 315 311 306 303 301 301 300 297 295 293 291 291 291 291 291 291 290 288 287 285 284
239 235 234 240 250 259 264 267 273 280 287 294 300 308 316 324 329 329 325 321 317 313 308 304 303 303 302 301 299 297 296 295 295 295 295 294 293 292 291 290 288 286
246 236 230 234 244 253 259 263 273 281 288 296 303 310 317 323 328 328 325 321 316 311 308 305 305 305 304 304 303 301 300 299 298 296 295 293 291 290 289 289 288 287
255 240 230 231 239 246 254 262 274 284 291 299 307 313 318 323 326 326 323 319 315 310 308 307 307 307 306 306 305 303 302 300 298 296 294 293 292 292 291 290 289 288
261 243 228 228 235 241 251 265 277 287 295 303 310 315 319 322 324 324 321 316 312 309 308 308 309 310 309 307 304 302 300 298 297 297 297 298 298 298 296 294 292 291
260 238 222 223 231 239 253 268 278 289 299 307 312 315 318 321 323 322 319 314 310 307 307 309 311 311 309 306 305 304 302 301 301 302 303 304 304 303 302 301 299 297
250 223 215 222 231 240 253 266 279 292 303 309 312 314 317 320 321 320 316 312 309 308 309 311 312 310 308 307 308 309 309 308 308 308 308 309 309 309 308 306 305 303
230 211 214 224 231 238 252 267 282 296 304 308 310 313 317 318 318 317 314 311 309 309 311 313 312 309 309 311 314 314 313 312 311 311 312 314 314 313 311 309 307 306
214 213 219 225 230 241 256 271 285 296 302 305 307 311 315 317 316 315 312 310 309 310 313 313 311 311 314 318 318 317 315 315 314 315 317 317 317 317 315 313 311 308
215 223 227 228 235 248 260 273 286 294 298 301 306 310 313 314 314 312 310 309 310 312 314 313 312 316 320 321 320 318 316 316 317 318 318 319 321 323 321 318 314 308
224 232 235 236 240 249 263 274 282 288 293 298 303 308 310 311 311 310 308 308 310 313 313 314 317 320 321 321 320 318 317 317 317 317 318 321 325 326 324 319 313 304
234 238 242 243 241 246 261 272 278 283 290 297 302 305 307 308 308 308 307 308 310 312 313 316 319 320 321 321 320 319 318 317 317 317 318 321 325 326 322 317 308 299
248 248 249 248 244 247 261 270 274 281 289 295 299 302 303 304 305 305 306 307 308 309 311 316 319 319 319 320 319 318 317 317 317 318 319 321 323 321 316 308 301 297
261 260 256 248 244 253 266 270 273 281 289 292 295 298 299 301 303 304 305 305 306 307 310 314 316 316 317 318 319 318 318 318 318 318 319 319 317 312 306 301 299 301
275 271 259 245 244 255 264 267 272 280 285 288 293 296 298 301 303 303 303 303 303 303 307 310 311 313 315 317 318 318 318 318 318 319 320 315 310 306 306 307 311 317
Height
3120 3120 3120 3120 3120 3119 3119 3119 3118 3117 3116 3115 3114 3113 3112 3111 3110 3109 3108 3107 3106 3105 3104 3104 3103 3103 3103 3102 3102 3102 3102 3102 3101 3101 3101 3101 3101 3101 3101 3101 3101 3101
3118 3119 3119 3118 3118 3118 3118 3117 3116 3116 3115 3114 3113 3112 3111 3110 3108 3107 3106 3105 3104 3103 3102 3101 3101 3100 3100 3099 3099 3099 3099 3098 3098 3097 3097 3097 3097 3097 3097 3097 3097 3097
3117 3117 3117 3117 3117 3116 3116 3115 3115 3114 3113 3112 3111 3110 3109 3108 3106 3105 3104 3102 3101 3101 3100 3099 3098 3098 3097 3097 3096 3096 3096 3095 3095 3094 3094 3093 3093 3093 3093 3093 3093 3093
3115 3115 3115 3115 3115 3114 3114 3113 3113 3112 3111 3110 3109 3109 3107 3106 3104 3103 3101 3100 3099 3098 3097 3096 3095 3095 3094 3094 3093 3093 3093 3092 3092 3091 3090 3089 3089 3089 3089 3089 3088 3088
3113 3113 3113 3113 3113 3112 3112 3111 3111 3110 3109 3108 3107 3106 3105 3103 3102 3100 3099 3097 3096 3095 3094 3094 3093 3092 3091 3091 3090 3090 3089 3088 3088 3087 3087 3086 3085 3085 3085 3085 3084 3084
3110 3111 3111 3111 3110 3110 3110 3109 3108 3108 3107 3106 3105 3104 3102 3101 3099 3098 3096 3095 3093 3092 3092 3091 3090 3090 3089 3088 3087 3087 3086 3085 3084 3084 3083 3082 3082 3081 3081 3081 3080 3080
3108 3108 3108 3108 3108 3108 3107 3107 3106 3106 3105 3104 3103 3102 3100 3098 3097 3095 3094 3092 3091 3090 3089 3088 3088 3087 3086 3085 3084 3083 3082 3082 3081 3080 3079 3079 3078 3078 3077 3077 3077 3076
3105 3106 3106 3106 3106 3105 3105 3104 3104 3103 3103 3102 3101 3099 3098 3096 3095 3093 3091 3090 3088 3087 3086 3086 3085 3084 3083 3082 3081 3080 3079 3078 3077 3077 3076 3076 3075 3074 3074 3074 3074 3073
3102 3103 3103 3103 3104 3103 3102 3102 3101 3101 3100 3099 3098 3097 3096 3094 3092 3091 3089 3087 3086 3085 3083 3083 3082 3081 3079 3078 3077 3076 3076 3075 3074 3074 3073 3073 3072 3072 3071 3071 3071 3070
3098 3099 3100 3101 3101 3100 3100 3099 3099 3099 3098 3097 3095 3094 3093 3092 3090 3089 3087 3085 3084 3082 3081 3080 3079 3078 3076 3075 3075 3074 3073 3072 3071 3070 3070 3069 3069 3068 3068 3068 3067 3067
3094 3095 3097 3098 3098 3098 3097 3097 3097 3097 3095 3094 3093 3092 3091 3089 3088 3087 3085 3084 3082 3080 3079 3077 3076 3075 3074 3073 3072 3071 3070 3069 3068 3067 3066 3066 3065 3065 3064 3064 3063 3063
3089 3090 3092 3094 3095 3095 3095 3095 3095 3094 3093 3091 3090 3089 3088 3087 3085 3084 3083 3082 3080 3078 3076 3074 3073 3072 3071 3070 3069 3068 3067 3066 3065 3064 3063 3063 3062 3061 3060 3060 3060 3059
3084 3085 3088 3090 3091 3092 3092 3092 3092 3091 3090 3089 3088 3087 3086 3084 3083 3082 3081 3079 3078 3076 3074 3072 3070 3069 3068 3067 3066 3065 3064 3063 3062 3062 3061 3060 3059 3058 3057 3057 3056 3056
3080 3081 3084 3086 3087 3089 3090 3090 3089 3088 3087 3086 3085 3084 3083 3082 3081 3080 3078 3077 3076 3074 3072 3070 3068 3067 3065 3064 3063 3062 3061 3060 3060 3059 3058 3057 3056 3055 3054 3053 3052 3051
3076 3078 3081 3083 3084 3086 3087 3087 3086 3085 3084 3083 3082 3081 3080 3079 3078 3077 3076 3075 3073 3071 3069 3067 3066 3065 3063 3062 3060 3059 3058 3057 3056 3056 3055 3054 3053 3052 3051 3050 3049 3047
3073 3075 3078 3080 3082 3083 3084 3084 3083 3082 3081 3080 3079 3078 3077 3076 3076 3075 3074 3073 3071 3069 3067 3065 3064 3062 3061 3059 3058 3057 3056 3055 3054 3052 3051 3051 3050 3049 3047 3046 3045 3044
3071 3072 3075 3078 3080 3081 3082 3081 3080 3079 3078 3077 3076 3075 3074 3073 3073 3072 3071 3070 3068 3066 3065 3063 3061 3060 3058 3056 3055 3054 3053 3052 3051 3050 3048 3048 3047 3045 3044 3042 3041 3040
3068 3070 3072 3075 3077 3078 3078 3078 3077 3076 3075 3074 3073 3072 3071 3070 3070 3069 3068 3067 3065 3064 3062 3061 3059 3057 3055 3054 3053 3051 3050 3049 3048 3047 3046 3044 3043 3042 3040 3039 3038 3036
3066 3068 3070 3073 3075 3075 3075 3074 3074 3073 3072 3071 3070 3069 3068 3068 3067 3066 3065 3064 3062 3061 3060 3058 3056 3055 3053 3051 3050 3048 3047 3046 3045 3044 3043 3041 3040 3039 3037 3036 3035 3034
3065 3067 3069 3070 3071 3072 3072 3071 3071 3071 3070 3069 3068 3067 3066 3066 3065 3064 3063 3061 3060 3058 3057 3055 3054 3052 3050 3049 3047 3046 3044 3043 3042 3041 3040 3039 3037 3036 3034 3033 3033 3032
3064 3066 3067 3068 3069 3069 3069 3069 3068 3068 3067 3066 3066 3065 3064 3063 3063 3062 3060 3059 3057 3056 3054 3053 3051 3049 3048 3046 3045 3043 3042 3041 3039 3038 3037 3036 3035 3033 3032 3031 3031 3030
3063 3064 3065 3066 3066 3066 3066 3066 3066 3065 3065 3064 3063 3063 3062 3061 3060 3059 3058 3056 3054 3053 3052 3050 3048 3046 3045 3044 3042 3041 3039 3038 3037 3036 3035 3034 3033 3031 3030 3029 3029 3029
3061 3062 3062 3063 3063 3064 3063 3064 3063 3063 3062 3062 3061 3060 3059 3058 3058 3057 3055 3054 3052 3051 3049 3048 3046 3044 3043 3042 3040 3039 3037 3036 3035 3034 3033 3031 3031 3029 3029 3028 3028 3027
3058 3058 3059 3060 3061 3061 3061 3061 3061 3060 3060 3059 3059 3058 3057 3056 3055 3054 3053 3051 3050 3049 3047 3046 3044 3043 3041 3040 3038 3037 3035 3034 3032 3031 3030 3029 3029 3028 3028 3027 3026 3026
3055 3055 3056 3057 3058 3058 3058 3058 3058 3058 3057 3057 3056 3055 3054 3054 3053 3052 3051 3049 3048 3047 3045 3044 3043 3041 3040 3038 3037 3035 3033 3032 3030 3029 3029 3028 3028 3027 3027 3026 3025 3024
3052 3052 3053 3054 3054 3055 3055 3055 3055 3054 3054 3054 3053 3053 3052 3051 3050 3049 3048 3047 3046 3045 3044 3043 3041 3040 3039 3037 3035 3034 3032 3030 3029 3028 3027 3027 3027 3026 3025 3024 3023 3022